FW8829 Weather Reports


Display with metric or nautical units.
time (UTC)temp
F
wind
direction
speed
MPH
gust
MPH
rain 1hr
in
rain 24hr
in
rain mn
in
humidity
%
barometer
mb
20260906064556 70 320 0.0 1.0 0.00 0.13 0.00 94 1016.7
20260906063055 70 302 0.0 1.0 0.00 0.13 0.00 94 1016.8
20260906061558 70 302 0.0 1.0 0.00 0.13 0.00 95 1017.0
20260906060052 70 0 0.0 0.0 0.00 0.13 0.00 93 1017.1
20260906054606 70 0 0.0 0.0 0.00 0.13 0.00 93 1017.4
20260906053054 71 0 0.0 0.0 0.00 0.13 0.00 92 1017.2
20260906051557 71 0 0.0 1.0 0.00 0.13 0.00 92 1017.5
20260906050120 72 96 0.0 0.0 0.00 0.13 0.00 90 1017.5
20260906044553 72 0 0.0 1.0 0.00 0.13 0.00 89 1017.3
20260906043100 72 0 0.0 1.0 0.00 0.13 0.00 90 1017.2
20260906041555 72 0 0.0 1.0 0.00 0.13 0.00 90 1017.2
20260906040113 72 0 0.0 0.0 0.00 0.13 0.00 90 1017.2
20260906034551 74 0 0.0 0.0 0.00 0.13 0.13 86 1017.5
20260906033100 73 0 0.0 0.0 0.00 0.13 0.13 86 1017.5
20260906031554 73 0 0.0 0.0 0.00 0.13 0.13 90 1017.8
20260906030055 72 0 0.0 0.0 0.00 0.13 0.13 90 1017.9
20260906024555 73 0 0.0 0.0 0.00 0.13 0.13 90 1017.7
20260906023057 72 0 0.0 0.0 0.00 0.13 0.13 90 1017.6
20260906021556 73 0 0.0 0.0 0.00 0.13 0.13 88 1017.7
20260906020055 74 0 0.0 4.0 0.00 0.13 0.13 87 1017.5
20260906014607 75 0 0.0 0.0 0.00 0.13 0.13 83 1017.5
20260906013053 74 0 0.0 0.0 0.00 0.13 0.13 86 1017.3
20260906011557 74 0 0.0 0.0 0.00 0.13 0.13 86 1017.2
20260906010051 75 93 1.0 2.0 0.00 0.13 0.13 85 1017.1
20260906004556 75 0 0.0 0.0 0.00 0.13 0.13 83 1016.9
20260906003057 76 0 0.0 0.0 0.00 0.13 0.13 81 1016.9
20260906001554 77 0 0.0 1.0 0.00 0.13 0.13 80 1016.7
20260905234611 80 0 0.0 1.0 0.00 0.13 0.13 75 1016.7
20260905233054 84 0 0.0 0.0 0.00 0.13 0.13 69 1016.7
20260905231629 86 0 0.0 1.0 0.00 0.13 0.13 67 1016.8
20260905230117 84 73 1.0 3.0 0.00 0.13 0.13 68 1016.8
20260905224556 85 37 1.0 4.0 0.00 0.13 0.13 66 1016.9
20260905223054 86 35 1.0 6.0 0.00 0.13 0.13 66 1017.1
20260905221557 86 6 3.0 7.0 0.00 0.13 0.13 65 1017.1
20260905220059 86 20 3.0 6.0 0.00 0.13 0.13 66 1017.0
20260905214556 85 349 3.0 7.0 0.00 0.13 0.13 66 1017.1
20260905213052 84 340 3.0 6.0 0.00 0.13 0.13 67 1017.1
20260905211601 84 302 2.0 7.0 0.00 0.13 0.13 70 1017.0
20260905210052 83 337 4.0 7.0 0.00 0.13 0.13 69 1017.1
20260905204550 83 339 4.0 7.0 0.00 0.13 0.13 69 1017.1
20260905203101 82 347 3.0 6.0 0.00 0.13 0.13 70 1017.3
20260905201555 81 307 5.0 9.0 0.00 0.13 0.13 73 1017.0
20260905200104 81 342 3.0 8.0 0.00 0.13 0.13 73 1017.3
20260905194549 81 265 1.0 7.0 0.00 0.13 0.13 72 1017.4
20260905193109 80 0 1.0 4.0 0.00 0.13 0.13 74 1017.8
20260905191554 80 40 2.0 4.0 0.00 0.13 0.13 74 1018.0
20260905190052 79 29 0.0 3.0 0.00 0.13 0.13 80 1018.3
20260905184554 77 319 1.0 5.0 0.00 0.13 0.13 85 1018.5
20260905183059 75 319 1.0 5.0 0.00 0.13 0.13 88 1018.8
20260905181558 73 347 1.0 7.0 0.00 0.13 0.13 91 1019.2
20260905180053 71 285 3.0 9.0 0.00 0.13 0.13 95 1019.4
20260905174548 70 309 0.0 4.0 0.00 0.13 0.13 96 1020.0
20260905173057 69 0 1.0 3.0 0.00 0.13 0.13 96 1020.3
20260905171559 69 0 0.0 3.0 0.09 0.13 0.13 96 1020.6
20260905170051 69 35 0.0 1.0 0.13 0.13 0.13 95 1020.5
20260905164558 69 169 0.0 2.0 0.13 0.13 0.13 95 1020.3
20260905163057 69 0 2.0 9.0 0.13 0.13 0.13 93 1020.6
20260905161551 72 58 9.0 22.0 0.04 0.04 0.04 89 1021.1
20260905160059 83 129 6.0 10.0 0.00 0.00 0.00 73 1020.4
20260905154604 85 16 1.0 4.0 0.00 0.00 0.00 70 1019.8
20260905153052 85 335 3.0 6.0 0.00 0.00 0.00 69 1020.0
20260905151552 84 1 4.0 7.0 0.00 0.00 0.00 70 1019.7
20260905150112 83 341 3.0 7.0 0.00 0.00 0.00 75 1019.6
20260905144554 83 321 2.0 6.0 0.00 0.00 0.00 74 1019.4
20260905143052 82 303 3.0 6.0 0.00 0.00 0.00 78 1019.5
20260905141551 81 0 0.0 4.0 0.00 0.00 0.00 81 1019.3
20260905140100 80 0 0.0 5.0 0.00 0.00 0.00 85 1019.7
20260905134554 78 0 0.0 3.0 0.00 0.00 0.00 88 1019.6
20260905133051 76 0 0.0 2.0 0.00 0.00 0.00 89 1019.6
20260905131547 74 317 0.0 2.0 0.00 0.00 0.00 91 1019.7
20260905130057 73 345 0.0 2.0 0.00 0.00 0.00 94 1019.9
20260905124558 72 309 1.0 2.0 0.00 0.00 0.00 96 1019.7
20260905123052 71 0 0.0 1.0 0.00 0.00 0.00 97 1019.8
20260905121601 70 0 0.0 0.0 0.00 0.00 0.00 97 1019.7
20260905120053 70 0 0.0 1.0 0.00 0.00 0.00 97 1019.6
20260905114558 70 0 0.0 2.0 0.00 0.00 0.00 97 1019.5
20260905113104 70 106 1.0 2.0 0.00 0.00 0.00 97 1019.4
20260905111552 70 0 0.0 2.0 0.00 0.00 0.00 96 1019.2
20260905110050 70 0 0.0 2.0 0.00 0.00 0.00 96 1018.8
20260905104557 70 110 0.0 2.0 0.00 0.00 0.00 96 1018.9
20260905103052 70 0 0.0 2.0 0.00 0.00 0.00 96 1018.8
20260905101552 70 0 0.0 2.0 0.00 0.00 0.00 95 1018.7
20260905100105 70 117 1.0 1.0 0.00 0.00 0.00 96 1018.6
20260905094555 70 117 1.0 1.0 0.00 0.00 0.00 95 1018.5
20260905093056 71 124 1.0 2.0 0.00 0.00 0.00 94 1018.6
20260905091601 71 0 0.0 1.0 0.00 0.00 0.00 94 1018.4
20260905084557 71 0 0.0 0.0 0.00 0.00 0.00 94 1018.5
20260905083054 71 0 0.0 0.0 0.00 0.00 0.00 93 1018.5
20260905081603 71 0 0.0 0.0 0.00 0.00 0.00 94 1018.4
20260905080053 71 0 0.0 0.0 0.00 0.00 0.00 93 1018.7
20260905074553 71 0 0.0 0.0 0.00 0.00 0.00 93 1019.0
20260905073103 71 0 0.0 0.0 0.00 0.00 0.00 93 1018.9
20260905071557 71 0 0.0 0.0 0.00 0.00 0.00 92 1019.0
20260905070055 72 0 0.0 0.0 0.00 0.00 0.00 91 1019.3